Location: *
(51.4660°N, 0.3360°W)
Time: 15:51:35
(UTC+00:00)

USA 245 - Pass Details

Date: 19 September 2019
Orbit: 266 x 999 km, 97.9° (Epoch: 04 October)

Event Time Altitude Azimuth Distance (km) Brightness Sun altitude
Exits shadow 20:45:45 52° 137° (SE) 1,178 4.5 -23.8°
Maximum altitude 20:47:15 72° 72° (ENE) 988 4.3 -24.0°
Drops below altitude 10° 20:52:54 10° 350° (N) 2,484 7.2 -24.7°
Sets 20:55:07 0° 348° (NNW) 3,331 8.1 -25.0°
